Starlink 31720

operational
NORAD ID: 59497 Int'l Des: 2024-071 Owner: SPXS Country: US Constellation: starlink
LEOCIRCULAR

关于 Starlink 31720

正在加载描述...

实时位置

正在加载3D地球...

即将过境

高度历史

Altitude vs Time

uPlot chart will show altitude changes over time

两行轨道根数

1 59497U 24071P 25310.98182240 .00004601 00000-0 17654-3 0 9990
2 59497 43.0003 313.1962 0000760 262.9764 97.1001 15.27592472 89436
Epoch: Nov 6, 2025 • Age: 10 hours

当前状态

高度 485.7 km
速度 7.63 km/s
星下点 38.80°N, 175.92°W
发射日期 Apr 13, 2024
运行时间 1.5 years
类型 internet

技术详情

分类 Payload
质量 730.00 kg
干质量 700.00 kg
总质量 730.00 kg
长度 0.30 m
直径 4.10 m
跨度 29.00 m
形状 Box + pan
制造商 SPXS
平台类型 Starlink V2M
阶段状态 In Orbit
所有者/国家 SPXS/US

大型星座

Loading constellations...